Location: Unspecified
(0.0000°N, 0.0000°E)
Time: 04:14:20
(UTC+00:00)

deb Delta 104 - Pass Details

Date: 08 March 2026
Orbit: 1403 x 1485 km, 102.0° (Epoch: 15 April)

Event Time Altitude Azimuth Distance (km) Brightness Sun altitude
Rises 20:10:10 0° 205° (SSW) 4,487 ? -29.8°
Reaches altitude 10° 20:15:46 10° 237° (WSW) 3,525 ? -31.2°
Maximum altitude 20:17:54 11° 252° (WSW) 3,437 ? -31.7°
Drops below altitude 10° 20:20:03 10° 268° (W) 3,538 ? -32.2°
Sets 20:25:47 0° 300° (WNW) 4,534 ? -33.6°
